Regional Weather Roundup
Issued by NWS

Home | Current Version | Previous Version | Graphics & Text | Print | Product List | Glossary On
Versions: 1 2 3 4 5 6 7 8 9 10 11 12 13 14 15 16 17 18 19 20 21 22 23 24 25 26 27 28 29 30 31 32 33 34 35 36 37 38 39 40 41 42 43 44 45 46 47 48 49 50
000
ASUS43 KBIS 272010
RWRND

NORTH DAKOTA REGIONAL WEATHER ROUNDUP
NATIONAL WEATHER SERVICE BISMARCK ND
200 PM CST TUE JAN 27 2015

NOTE: "FAIR" INDICATES FEW OR NO CLOUDS BELOW 12,000 FEET WITH NO
SIGNIFICANT WEATHER AND/OR OBSTRUCTIONS TO VISIBILITY.


NDZ001>003-009>011-017-272100-
NORTHWEST NORTH DAKOTA

CITY           SKY/WX    TMP DP  RH WIND       PRES   REMARKS
WILLISTON      PTSUNNY   51  35  54 S3        29.80F
MINOT          MOSUNNY   47  35  63 S7        29.78F
MINOT AFB      MOSUNNY   46  43  89 VRB2      29.79F
$$

NDZ018>021-031>035-040>046-272100-
SOUTHWEST NORTH DAKOTA

CITY           SKY/WX    TMP DP  RH WIND       PRES   REMARKS
BISMARCK       MOSUNNY   49  32  52 SW6       29.84F
DICKINSON      MOSUNNY   61  37  41 W10       29.82F
GARRISON         N/A     47  37  68 SW6       29.81S
HETTINGER ARPT MOSUNNY   61  34  36 W10       29.86F
$$

NDZ004>008-012>016-024-026-027-054-272100-
NORTHEAST NORTH DAKOTA

CITY           SKY/WX    TMP DP  RH WIND       PRES   REMARKS
GRAND FORKS    CLOUDY    31  29  92 S17       29.97F WCI  19
GRND FRKS AFB  CLOUDY    31  28  89 S15       29.96F
DEVILS LAKE    PTSUNNY   36  30  80 S17       29.87F
$$

NDZ022-023-025-028>030-036>039-047>053-272100-
SOUTHEAST NORTH DAKOTA

CITY           SKY/WX    TMP DP  RH WIND       PRES   REMARKS
FARGO          CLOUDY    31  29  92 S17       30.01F WCI  19
JAMESTOWN      MOSUNNY   40  34  79 S20       29.88F
$$



USA.gov is the U.S. government's official web portal to all federal, state and local government web resources and services.